Dublin, Ireland

9:00 PM IST on July 20, 2017 (GMT +0100)
Dublin International

Weather History for EIDW - October, 2012

Change the Weather History Date:

Tuesday, October 16, 2012

  Actual Average Record
Temperature  
Mean Temperature 47 °F -  
Max Temperature 53 °F 53 °F 64 °F (1997)
Min Temperature 41 °F 43 °F 35 °F (2015)
Degree Days  
Heating Degree Days 18    
Moisture  
Dew Point 41 °F    
Average Humidity 82    
Maximum Humidity 93    
Minimum Humidity 58    
Precipitation  
Precipitation 0.00 in 0.09 in - ()
Sea Level Pressure  
Sea Level Pressure 29.37 in    
Wind  
Wind Speed 15 mph ()    
Max Wind Speed 28 mph    
Max Gust Speed 37 mph    
Visibility 6.4 miles    
Events Rain    
Averages and records for this station are not official NWS values.
T = Trace of Precipitation, MM = Missing Value Source: Averaged Metar Reports

Daily Weather History Graph

Daily Weather History Graph

Search for Another Location

Airport or City:

Trip Planner

Search our weather history database for the weather conditions in past years. The results will help you decide how hot, cold, wet, or windy it might be!

Date:

Astronomy

Oct. 16, 2012 Rise Set
Actual Time 7:54 AM IST 6:25 PM IST
Civil Twilight 7:18 AM IST 7:00 PM IST
Nautical Twilight 6:38 AM IST 7:41 PM IST
Astronomical Twilight 5:58 AM IST 8:21 PM IST
Moon 9:17 AM IST (10/16) 6:39 PM IST (10/16)
Length of Visible Light 11h 41m
Length of Day
10h 31m
New Moon, 1% of the Moon is Illuminated
Oct 16
New Moon
Oct 22
First Quarter
Oct 29
Full
Nov 7
Last Quarter
Nov 13
New

Hourly Weather History & Observations

Time (IST) Temp. Windchill Dew Point Humidity Pressure Visibility Wind Dir Wind Speed Gust Speed Precip Events Conditions
12:00 AM 46.4 °F 40.4 °F 42.8 °F 87% 29.21 in 6.2 mi SW 13.8 mph - N/A   Mostly Cloudy
12:30 AM 46.4 °F 39.5 °F 42.8 °F 87% 29.18 in 6.2 mi SW 17.3 mph - N/A   Mostly Cloudy
1:00 AM 46 °F - 42 °F 80% 29.18 in 12 mi SSW 15.7 mph - - Rain Light Drizzle
1:00 AM 46.4 °F 40.1 °F 41.0 °F 81% 29.18 in 6.2 mi SSW 15.0 mph 27.6 mph N/A   Light Drizzle
1:30 AM 46.4 °F 40.1 °F 42.8 °F 87% 29.15 in 6.2 mi SSW 15.0 mph - N/A   Mostly Cloudy
2:00 AM 48.2 °F - 44.6 °F 87% 29.12 in 6.2 mi SW 20.7 mph - N/A   Mostly Cloudy
2:30 AM 46.4 °F 38.3 °F 44.6 °F 93% 29.12 in 6.2 mi SW 23.0 mph 36.8 mph N/A Rain Light Rain Showers
3:00 AM 46.4 °F 37.9 °F 44.6 °F 93% 29.12 in 6.2 mi WSW 25.3 mph - N/A Rain Light Rain Showers
3:30 AM 46.4 °F 37.5 °F 44.6 °F 93% 29.15 in 6.2 mi West 27.6 mph - N/A   Mostly Cloudy
4:00 AM 46.4 °F 38.7 °F 44.6 °F 93% 29.18 in 6.2 mi West 20.7 mph - N/A   Mostly Cloudy
4:30 AM 46.4 °F 38.7 °F 44.6 °F 93% 29.18 in 6.2 mi West 20.7 mph - N/A Rain Light Rain
5:00 AM 46.4 °F 37.9 °F 44.6 °F 93% 29.21 in 6.2 mi West 25.3 mph - N/A   Mostly Cloudy
5:30 AM 44.6 °F 35.9 °F 42.8 °F 93% 29.24 in 6.2 mi West 23.0 mph - N/A Rain Light Rain
6:00 AM 44.6 °F 36.4 °F 42.8 °F 93% 29.27 in 6.2 mi West 20.7 mph - N/A   Mostly Cloudy
6:30 AM 42.8 °F 33.5 °F 41.0 °F 93% 29.30 in 6.2 mi West 23.0 mph - N/A Rain Light Rain
7:00 AM 43 °F - 41 °F 90% 29.33 in 12 mi West 24.6 mph - - Rain Light Rain
7:00 AM 42.8 °F 33.3 °F 41.0 °F 93% 29.30 in 6.2 mi West 24.2 mph - N/A Rain Light Rain
8:00 AM 42.8 °F 34.0 °F 41.0 °F 93% 29.36 in 6.2 mi WNW 20.7 mph - N/A   Mostly Cloudy
8:30 AM 42.8 °F 35.1 °F 41.0 °F 93% 29.36 in 6.2 mi WNW 16.1 mph - N/A   Mostly Cloudy
9:00 AM 42.8 °F 35.1 °F 41.0 °F 93% 29.39 in 6.2 mi WNW 16.1 mph - N/A   Mostly Cloudy
9:30 AM 42.8 °F 34.8 °F 39.2 °F 87% 29.42 in 6.2 mi West 17.3 mph - N/A   Mostly Cloudy
10:00 AM 42.8 °F 35.8 °F 39.2 °F 87% 29.42 in 6.2 mi West 13.8 mph - N/A   Scattered Clouds
10:30 AM 44.6 °F 38.4 °F 39.2 °F 81% 29.44 in 6.2 mi West 12.7 mph - N/A   Partly Cloudy
11:00 AM 44.6 °F 36.9 °F 41.0 °F 87% 29.44 in 6.2 mi West 18.4 mph - N/A   Partly Cloudy
11:30 AM 46.4 °F 39.2 °F 41.0 °F 81% 29.44 in 6.2 mi West 18.4 mph - N/A   Partly Cloudy
12:00 PM 46.4 °F 39.8 °F 39.2 °F 76% 29.47 in 6.2 mi West 16.1 mph - N/A   Partly Cloudy
12:30 PM 48.2 °F - 41.0 °F 76% 29.47 in 6.2 mi West 17.3 mph - N/A   Scattered Clouds
1:00 PM 49 °F - 42 °F 69% 29.50 in 31 mi West 17.9 mph - -   Partly Cloudy
1:00 PM 50.0 °F - 39.2 °F 66% 29.47 in 6.2 mi West 17.3 mph - N/A   Mostly Cloudy
1:41 PM 51.8 °F - 41.0 °F 67% 29.50 in 6.2 mi West 18.4 mph - N/A   Mostly Cloudy
2:00 PM 51.8 °F - 41.0 °F 67% 29.47 in 6.2 mi West 16.1 mph 27.6 mph N/A   Scattered Clouds
2:30 PM 51.8 °F - 41.0 °F 67% 29.47 in 6.2 mi West 18.4 mph - N/A   Scattered Clouds
3:00 PM 53.6 °F - 39.2 °F 58% 29.50 in 6.2 mi WSW 15.0 mph - N/A   Mostly Cloudy
3:30 PM 53.6 °F - 39.2 °F 58% 29.47 in 6.2 mi WSW 12.7 mph - N/A   Scattered Clouds
4:00 PM 53.6 °F - 39.2 °F 58% 29.47 in 6.2 mi WSW 15.0 mph - N/A   Scattered Clouds
4:30 PM 53.6 °F - 39.2 °F 58% 29.47 in 6.2 mi WSW 10.4 mph - N/A   Scattered Clouds
5:00 PM 51.8 °F - 39.2 °F 62% 29.47 in 6.2 mi SW 10.4 mph - N/A   Scattered Clouds
5:30 PM 51.8 °F - 39.2 °F 62% 29.47 in 6.2 mi SW 8.1 mph - N/A   Scattered Clouds
6:00 PM 50.0 °F - 39.2 °F 66% 29.47 in 6.2 mi SW 6.9 mph - N/A   Scattered Clouds
6:30 PM 48.2 °F - 39.2 °F 71% 29.47 in 6.2 mi SSW 4.6 mph - N/A   Mostly Cloudy
7:00 PM 46 °F - 39 °F 70% 29.49 in 25 mi South 4.5 mph - -   Scattered Clouds
7:00 PM 46.4 °F 44.3 °F 39.2 °F 76% 29.47 in 6.2 mi South 4.6 mph - N/A   Scattered Clouds
7:30 PM 44.6 °F 42.2 °F 39.2 °F 81% 29.47 in 6.2 mi South 4.6 mph - N/A   Mostly Cloudy
8:00 PM 41.0 °F 38.0 °F 37.4 °F 87% 29.47 in 6.2 mi SSE 4.6 mph - N/A   Mostly Cloudy
8:30 PM 41.0 °F 38.0 °F 39.2 °F 93% 29.47 in 6.2 mi South 4.6 mph - N/A   Mostly Cloudy
9:00 PM 42.8 °F 39.3 °F 39.2 °F 87% 29.47 in 6.2 mi SSE 5.8 mph - N/A   Mostly Cloudy
9:30 PM 41.0 °F 39.0 °F 39.2 °F 93% 29.44 in - SE 3.5 mph - N/A   Clear
10:00 PM 44.6 °F 42.2 °F 41.0 °F 87% 29.44 in 6.2 mi ESE 4.6 mph - N/A   Mostly Cloudy
10:30 PM 46.4 °F 42.9 °F 42.8 °F 87% 29.42 in 6.2 mi East 6.9 mph - N/A   Mostly Cloudy
11:00 PM 46.4 °F 43.5 °F 44.6 °F 93% 29.42 in 6.2 mi SE 5.8 mph - N/A Rain Light Rain
11:30 PM 46.4 °F 44.3 °F 44.6 °F 93% 29.39 in 6.2 mi East 4.6 mph - N/A   Mostly Cloudy